Regional Weather Roundup
Issued by NWS

Home | Current Version | Previous Version | Graphics & Text | Print | Product List | Glossary On
Versions: 1 2 3 4 5 6 7 8 9 10 11 12 13 14 15 16 17 18 19 20 21 22 23 24 25 26 27 28 29 30 31 32 33 34 35 36 37 38 39 40 41 42 43 44 45 46 47 48 49 50
000
ASUS43 KMKX 230311
RWRWI

WISCONSIN REGIONAL WEATHER ROUNDUP
NATIONAL WEATHER SERVICE MILWAUKEE/SULLIVAN WI
1000 PM CDT MON SEP 22 2014

NOTE: "FAIR" INDICATES FEW OR NO CLOUDS BELOW 12,000 FEET WITH NO
SIGNIFICANT WEATHER AND/OR OBSTRUCTIONS TO VISIBILITY.

WIZ001-002-006>008-014>016-023>028-230400-
NORTHWEST WISCONSIN

CITY           SKY/WX    TMP DP  RH WIND       PRES   REMARKS
SUPERIOR ARPT  CLEAR     55  51  87 SW5       30.13R
ASHLAND        CLEAR     56  51  84 SW7       30.15R
HAYWARD        CLEAR     50  48  93 CALM      30.17S
SIREN          CLEAR     53  51  94 CALM      30.17R
CUMBERLAND     CLEAR     48  46  93 CALM      30.18S
RICE LAKE      CLEAR     52  50  95 CALM      30.20R FOG
CHETEK         CLEAR     51  50  99 CALM      30.19S
LADYSMITH      CLEAR     50  49  94 CALM      30.21R
EAU CLAIRE     CLEAR     52  50  93 CALM      30.19R
MENOMONIE      CLEAR     53  50  89 CALM      30.20R
NEW RICHMOND   CLEAR     52  51  97 CALM      30.18S
OSCEOLA        CLEAR     52  52 100 CALM      30.20S
$$

WIZ003>005-009-010-017-018-230400-
NORTH CENTRAL WISCONSIN

CITY           SKY/WX    TMP DP  RH WIND       PRES   REMARKS
MANITOWISH WTR CLEAR     46  46 100 S3        30.16S FOG
ARBOR VITAE    CLEAR     52  49  92 CALM      30.18S
WOODRUFF       CLEAR     52  49  92 CALM      30.18S
RHINELANDER    CLEAR     50  47  89 W6        30.19S
EAGLE RIVER    PTCLDY    47  47 100 SW3       30.17S FOG
LAND O LAKES   CLEAR     44  44  99 CALM      30.17S
PHILLIPS       CLEAR     47  46  93 CALM      30.18S
TOMAHAWK       CLEAR     46  44  93 CALM      30.20R FOG
MEDFORD        CLEAR     53  49  87 SW5       30.20R
MERRILL        CLEAR     46  46  99 CALM      30.20R FOG
$$

WIZ029-030-035-036-043>047-230400-
CENTRAL WISCONSIN

CITY           SKY/WX    TMP DP  RH WIND       PRES   REMARKS
WAUSAU         CLEAR     53  50  89 CALM      30.19R
MOSINEE        CLEAR     50  50 100 CALM      30.22R
MARSHFIELD     CLEAR     52  49  89 SW7       30.21R
STEVENS POINT  CLEAR     48  46  95 CALM      30.21S
WAUPACA        CLEAR     53  51  93 CALM      30.21R
WAUTOMA        CLEAR     49  48  96 CALM      30.22R
WISC RAPIDS    CLEAR     50  49  96 CALM      30.22S
CAMP DOUGLAS   CLEAR     46  46 100 E2        30.22R
$$

WIZ011>013-019>022-031-037>040-048>050-230400-
NORTHEAST WISCONSIN

CITY           SKY/WX    TMP DP  RH WIND       PRES   REMARKS
ANTIGO         CLEAR     50  48  92 W6        30.20S
SHAWANO        CLEAR     57  50  79 W3        30.19S
OCONTO         CLEAR     48  48 100 CALM      30.18R
STURGEON BAY   CLEAR     55  48  76 SW6       30.18S
GREEN BAY      CLEAR     51  49  92 CALM      30.20R
MANITOWOC      CLEAR     50  49  96 CALM      30.21R
APPLETON       CLEAR     54  48  82 W7        30.21R
CLINTONVILLE   CLEAR     50  46  87 CALM      30.20R
OSHKOSH        CLEAR     56  50  80 SW5       30.20S
$$

WIZ032>034-041-042-053>061-230400-
SOUTHWEST WISCONSIN

CITY           SKY/WX    TMP DP  RH WIND       PRES   REMARKS
LA CROSSE      CLEAR     56  52  86 SE6       30.21R
SPARTA         CLEAR     48  48 100 CALM      30.23R
VIROQUA        CLEAR     51  51 100 CALM      30.23R
BOSCOBEL       CLEAR     51  49  92 CALM      30.24R
PRAIRIE DU CHI CLEAR     52  50  92 CALM      30.23R
PLATTEVILLE    CLEAR     53  48  83 S6        30.26R
$$

WIZ056-057-062-063-064-067-068-230400-
SOUTH CENTRAL WISCONSIN

CITY           SKY/WX    TMP DP  RH WIND       PRES   REMARKS
REEDSBURG      CLEAR     51  50  96 CALM      30.23R
BARABOO/DELLS  CLEAR     52  48  85 CALM      30.23R
LONE ROCK      CLEAR     52  47  83 E5        30.24R
MINERAL POINT  CLEAR     55  46  71 S6        30.24S
MADISON        CLEAR     52  49  89 CALM      30.23R
MIDDLETON      CLEAR     49  48  97 CALM      30.24R
WATERTOWN      CLEAR     48  47  97 CALM      30.23S
MONROE         CLEAR     55  46  71 SW7       30.25R
JANESVILLE     CLEAR     54  46  76 CALM      30.24R
$$

WIZ051-052-058>065-066-070>072-230400-
SOUTHEAST WISCONSIN

CITY           SKY/WX    TMP DP  RH WIND       PRES   REMARKS
MILWAUKEE      CLEAR     55  47  74 SE3       30.24R
WAUKESHA       CLEAR     52  45  76 SW5       30.24S
MILWAUKEE/TIMM CLEAR     54  46  76 CALM      30.24R
RACINE         CLEAR     52  49  89 SW3       30.25S
BURLINGTON     CLEAR     46  46  99 CALM      30.24S
KENOSHA        CLEAR     51  47  86 S3        30.24R
FOND DU LAC    CLEAR     55  49  80 SW6       30.22R
SHEBOYGAN      CLEAR     50  48  93 SW3       30.21R
WEST BEND      CLEAR     50  46  87 CALM      30.23R
JUNEAU         CLEAR     53  49  86 CALM      30.24R
$$

LSZ147-162-230400-
LAKE SUPERIOR

STATION/POSITION TIME  TEMP    WIND        PRES    WAVE
                       AIR SEA DIR/SP/G            HT/PER
                 (UTC) (F)     (DEG/KT/KT) (MB)    (FT/S)
W MID LAKE BUOY  0250   54 48  240/ 12/ 12 1018.4R   2/ 4
DEVILS ISLAND    0300   61     240/ 17/ 18 1019.5R
PORT WING        0200   62     200/  7/ 10 1020.0
SAXON HARBOR     0200   57     210/  3/  7 1020.3R
$$

LMZ867-665-643>646-230400-
LAKE MICHIGAN

STATION/POSITION TIME  TEMP    WIND        PRES    WAVE
                       AIR SEA DIR/SP/G            HT/PER
                 (UTC) (F)     (DEG/KT/KT) (MB)    (FT/S)
CHAMBERS ISLAND  0200   60     200/  5/  9 1021.0R
S GREEN BAY BUOY 0100   61                 1022.1R
N MID LAKE BUOY  0250   58 57  220/ 16/ 17 1020.9R   3/ 4
NORTHPORT PIER   0200   57     210/  3/  7 1020.7R
KEWAUNEE LAKESHO 0200   55     250/  1/  2 1021.1R
SHEBOYGAN LAKESH 0300   57 52  210/  4/  4 1023.5R
PORT WASHINGTON  0200   55     260/  2/  3 1023.4S
ATWATER BUOY     0300   59     210/  6/  6 1024.5R
S MID LAKE BUOY  0250   61 62  190/ 12/ 14 1024.4R   1/ 3
KENOSHA   LAKESH 0300   58     230/  6/  7 1024.0R
$$

TC  - TEMPERATURE IN CELSIUS
VSB - VISIBILITY IN STATUTE MILES
WCI - WIND CHILL INDEX
HX  - HEAT INDEX



USA.gov is the U.S. government's official web portal to all federal, state and local government web resources and services.